Overview Statistics Trail Chart Weather Telemetry Raw packets
 

This is the latest recevied weather packets stored in our database for station/object K2CAT. If no packets are shown the sender has not sent any weather packets the latest 10 day(s).

<< 31 32 33 34 35 36 37 >>
Time Temp. Humidity Pressure Rain* Wind** Luminosity Snow
1777489021 18.89° C 51% 1011.5 hPa 0 mm - 230 W/m² -
1777488718 19.44° C 53% 1011.7 hPa 0 mm - 246 W/m² -
1777488415 18.89° C 53% 1011.7 hPa 0 mm - 221 W/m² -
1777488114 18.89° C 51% 1011.7 hPa 0 mm - 258 W/m² -
1777487811 18.89° C 54% 1011.7 hPa 0 mm - 279 W/m² -
1777487509 18.33° C 52% 1011.7 hPa 0 mm - 250 W/m² -
1777487206 18.33° C 51% 1011.8 hPa 0 mm - 201 W/m² -
1777486902 18.33° C 52% 1012.2 hPa 0 mm - 223 W/m² -
1777486599 18.33° C 53% 1012 hPa 0 mm - 192 W/m² -
1777486297 17.78° C 53% 1012.2 hPa 0 mm - 171 W/m² -
1777485994 18.33° C 53% 1012.3 hPa 0 mm - 129 W/m² -
1777485691 18.33° C 55% 1012.2 hPa 0 mm - 131 W/m² -
1777485386 18.89° C 55% 1012.1 hPa 0 mm - 164 W/m² -
1777485087 18.89° C 53% 1012.2 hPa 0 mm - 190 W/m² -
1777484780 18.89° C 54% 1012.4 hPa 0 mm - 286 W/m² -
1777484475 19.44° C 52% 1012.3 hPa 0 mm - 295 W/m² -
1777484173 18.89° C 50% 1012.4 hPa 0 mm - 314 W/m² -
1777483868 18.89° C 56% 1012.5 hPa 0 mm - 415 W/m² -
1777483566 18.33° C 52% 1012.8 hPa 0 mm - 315 W/m² -
1777483266 18.33° C 54% 1012.8 hPa 0 mm - 232 W/m² -
1777482962 18.33° C 53% 1012.5 hPa 0 mm - 204 W/m² -
1777482658 17.78° C 55% 1012.6 hPa 0 mm - 213 W/m² -
1777482355 18.33° C 54% 1012.7 hPa 0 mm - 235 W/m² -
1777482053 17.78° C 54% 1013 hPa 0 mm - 242 W/m² -
1777481750 18.33° C 54% 1012.9 hPa 0 mm - 225 W/m² -

* Rain latest hour (hover to see other rain measurements)
** Current wind speed in m/s (hover to see current wind gust speed)